Date,TemperatureHighF,TemperatureAvgF,TemperatureLowF,DewpointHighF,DewpointAvgF,DewpointLowF,HumidityHigh,HumidityAvg,HumidityLow,PressureMaxIn,PressureMinIn,WindSpeedMaxMPH,WindSpeedAvgMPH,GustSpeedMaxMPH,PrecipitationSumIn
2013-1-1,25.7,18.9,10.8,13.3,1.6,-6.4,68,47,32,29.32,29.18,11,3,11,0.00
2013-1-2,33.8,19.8,9.5,11.9,1.6,-7.6,57,44,35,29.29,29.18,9,4,9,0.00
2013-1-3,36.1,29.2,22.6,14.3,10.2,5.8,61,45,32,29.44,29.29,13,4,13,0.00
2013-1-4,41.7,29.2,16.9,19.1,10.9,5.9,72,48,30,29.44,29.29,13,3,13,0.00
2013-1-5,42.8,35.6,29.7,20.8,15.9,10.5,51,44,39,29.32,29.15,17,5,17,0.00
2013-1-6,39.0,29.7,21.6,11.1,8.3,5.1,53,41,29,29.44,29.23,15,5,15,0.00
2013-1-7,48.6,36.1,25.3,15.6,10.9,7.5,48,36,24,29.38,29.15,16,4,16,0.00
2013-1-8,54.5,42.6,32.9,22.4,17.3,13.3,46,37,25,29.29,29.09,15,4,15,0.00
2013-1-9,54.5,42.8,32.7,20.9,17.4,13.5,54,37,25,29.53,29.26,14,4,14,0.00
2013-1-10,49.8,43.6,37.9,49.3,35.8,13.5,98,79,31,29.47,28.91,15,5,15,0.00
2013-1-11,59.7,54.0,48.2,49.0,33.8,23.9,97,53,26,28.94,28.76,17,6,17,0.00
2013-1-12,59.2,30.6,22.1,22.9,4.2,-2.6,55,33,18,29.26,28.88,24,8,24,0.00
2013-1-13,25.5,19.0,12.9,-1.2,-5.7,-10.6,39,33,26,29.53,29.21,14,6,14,0.00
2013-1-14,29.7,19.9,12.9,-0.9,-6.1,-10.3,37,31,23,29.68,29.50,11,3,11,0.00
2013-1-15,31.1,21.7,14.5,1.5,-4.3,-8.1,39,31,23,29.59,29.38,9,2,9,0.00
2013-1-16,44.1,29.9,15.8,12.4,4.0,-5.2,43,33,23,29.41,29.26,16,4,16,0.00
2013-1-17,46.9,37.1,29.5,17.2,11.7,6.1,57,36,22,29.71,29.38,12,4,12,0.00
2013-1-18,55.0,42.4,30.2,17.9,13.4,9.8,45,32,20,29.68,29.35,17,6,17,0.00
2013-1-19,60.1,49.2,40.5,17.9,13.8,7.7,38,25,17,29.53,29.29,18,7,18,0.00
2013-1-20,44.1,29.3,20.8,10.8,-2.0,-8.2,32,25,22,29.68,29.53,11,5,11,0.00
2013-1-21,22.5,18.2,14.5,-2.1,-8.0,-13.1,41,31,22,29.74,29.65,15,5,15,0.00
2013-1-22,28.9,20.1,12.6,-4.2,-8.5,-13.6,34,27,23,29.74,29.59,11,4,11,0.00
2013-1-23,47.3,29.9,15.6,10.2,0.4,-7.1,38,28,19,29.74,29.50,14,4,14,0.00
2013-1-24,27.1,20.3,9.0,-0.9,-8.4,-16.8,34,27,24,29.83,29.53,16,6,16,0.00
2013-1-25,45.9,33.7,22.8,7.1,0.9,-5.6,32,24,20,29.62,29.50,11,3,11,0.00
2013-1-26,55.8,42.2,32.4,13.0,8.0,3.0,32,25,17,29.68,29.47,15,5,15,0.00
2013-1-27,61.9,50.7,39.9,41.9,29.4,7.6,58,44,22,29.47,29.15,19,7,19,0.00
2013-1-28,73.2,65.2,59.0,46.8,41.4,34.0,61,43,24,29.26,29.09,20,6,20,0.00
2013-1-29,67.3,50.6,36.0,48.8,40.4,30.9,95,72,43,29.12,28.85,17,6,17,0.00
2013-1-30,36.3,27.4,22.1,30.8,10.2,-0.2,85,49,35,29.38,28.85,25,11,25,0.00
2013-1-31,24.3,17.8,8.6,7.3,-4.0,-15.2,50,37,28,29.85,29.35,26,7,26,0.00
2013-2-1,25.2,17.3,6.8,1.3,-7.2,-16.8,37,33,31,29.85,29.56,11,4,11,0.00
2013-2-2,47.5,36.4,23.9,17.2,10.0,0.6,38,33,28,29.62,29.50,18,6,18,0.00
2013-2-3,47.1,39.6,33.3,17.0,9.8,3.2,40,30,19,29.71,29.29,15,6,15,0.00
2013-2-4,48.9,39.9,24.3,15.6,12.6,8.9,54,33,26,29.41,29.21,14,5,14,0.00
2013-2-5,57.2,39.0,22.5,20.4,14.0,8.6,73,40,20,29.53,29.35,18,5,18,0.00
2013-2-6,60.4,47.6,34.5,23.7,18.2,11.0,45,31,24,29.56,29.35,18,7,18,0.00
2013-2-7,50.2,43.3,32.2,46.4,29.8,16.3,94,61,34,29.62,29.32,18,6,18,0.00
2013-2-8,41.2,33.0,28.9,19.4,15.9,13.5,66,50,36,29.80,29.59,15,5,15,0.00
2013-2-9,47.8,36.1,28.2,31.8,21.5,15.3,83,58,29,29.68,29.23,17,8,17,0.00
2013-2-10,52.9,44.7,36.9,49.3,26.0,9.5,98,55,27,29.38,28.97,37,13,37,0.00
2013-2-11,46.8,38.2,31.5,14.8,11.9,8.0,43,34,24,29.62,29.35,26,8,26,0.00
2013-2-12,40.3,34.6,28.6,16.0,11.9,8.0,52,39,30,29.62,29.41,8,2,8,0.00
2013-2-13,54.3,40.5,27.9,18.6,13.7,10.2,53,35,20,29.44,29.26,19,5,19,0.00
2013-2-14,49.1,42.4,35.4,18.3,14.8,8.8,42,33,24,29.62,29.29,15,7,15,0.00
2013-2-15,39.4,30.5,22.3,14.6,4.0,-1.9,63,33,22,29.83,29.59,17,7,17,0.00
2013-2-16,33.6,28.5,19.9,15.1,9.4,5.6,76,47,31,29.77,29.53,15,4,15,0.00
2013-2-17,57.4,43.3,28.4,21.6,14.5,7.6,42,32,24,29.56,29.18,14,6,14,0.00
2013-2-18,54.5,43.9,28.6,42.4,19.5,2.6,72,39,26,29.56,29.06,25,10,25,0.00
2013-2-19,34.5,27.1,21.2,5.1,-1.2,-9.0,43,30,20,29.80,29.53,20,8,20,0.00
2013-2-20,25.0,20.6,15.3,1.6,-4.4,-10.9,39,32,27,29.85,29.65,14,5,14,0.00
2013-2-21,27.1,23.9,20.3,24.3,14.5,0.7,90,70,38,29.68,29.23,21,7,21,0.00
2013-2-22,28.0,23.5,16.9,23.4,9.8,3.2,91,57,36,29.56,29.23,18,8,18,0.00
2013-2-23,18.1,11.8,8.4,8.0,0.6,-2.6,66,60,55,29.56,29.50,6,1,6,0.00
2013-2-25,37.4,34.5,32.5,29.5,21.4,12.9,87,61,36,29.38,29.15,17,6,17,0.00
2013-2-26,32.9,32.0,30.9,31.9,28.2,22.5,98,86,68,29.32,29.03,0,0,0,0.00
2013-2-27,34.0,31.2,28.4,26.9,17.7,11.6,90,59,40,29.53,29.32,18,3,19,0.00
2013-2-28,33.6,30.3,27.5,16.3,12.9,10.8,53,48,44,29.68,29.50,20,8,20,0.00
2013-3-1,30.0,27.6,25.9,13.6,10.1,7.3,53,47,41,29.80,29.68,14,7,14,0.00
2013-3-2,33.1,26.7,22.3,10.4,4.7,2.0,51,39,31,29.85,29.68,10,4,10,0.00
2013-3-3,43.3,34.0,23.4,13.2,9.5,5.5,48,36,28,29.68,29.29,14,6,14,0.00
2013-3-4,49.6,40.6,34.3,24.8,15.7,11.5,64,36,28,29.44,29.21,15,6,15,0.00
2013-3-5,37.4,32.2,28.2,28.8,9.8,2.8,80,40,31,29.83,29.44,29,13,29,0.00
2013-3-6,38.1,29.7,23.5,10.2,6.9,4.3,48,38,30,29.91,29.80,16,5,16,0.00
2013-3-7,48.6,35.0,23.0,17.0,12.2,7.0,53,40,28,29.80,29.65,14,6,14,0.00
2013-3-8,53.4,45.1,37.0,25.3,19.8,14.2,46,36,29,29.74,29.56,16,7,16,0.00
2013-3-9,60.1,52.2,44.8,55.9,37.2,24.2,98,60,34,29.56,29.18,17,6,17,0.00
2013-3-10,56.1,42.3,27.3,53.5,36.4,13.7,98,80,57,29.41,29.12,21,8,21,0.00
2013-3-11,36.3,29.4,25.5,14.1,9.8,5.0,57,44,30,29.59,29.41,23,9,23,0.00
2013-3-12,47.1,37.0,30.2,15.0,9.2,4.8,42,32,22,29.88,29.56,29,8,29,0.00
2013-3-13,45.9,34.5,24.1,11.1,7.7,4.1,46,33,22,30.03,29.88,13,5,13,0.00
2013-3-14,70.7,51.4,34.5,26.9,16.8,8.4,35,26,17,29.88,29.62,19,6,19,0.00
2013-3-15,79.2,60.9,41.5,31.0,24.8,18.2,48,27,15,29.68,29.26,15,4,15,0.00
2013-3-16,63.9,44.4,36.5,28.9,20.6,13.9,58,39,24,29.71,29.29,17,7,17,0.00
2013-3-17,36.3,33.6,32.2,31.5,20.9,12.6,91,61,40,29.71,29.44,16,7,16,0.00
2013-3-18,53.1,41.6,33.8,34.4,20.6,2.4,98,53,18,29.77,29.44,27,8,27,0.00
2013-3-19,38.1,34.1,29.5,32.5,15.9,1.0,86,51,24,30.00,29.77,9,2,9,0.00
2013-3-20,38.1,31.6,25.3,32.9,4.4,-5.0,93,34,21,30.18,29.97,22,6,22,0.00
2013-3-21,28.6,26.3,23.5,23.2,8.7,-3.8,81,50,26,29.97,29.80,15,5,15,0.00
2013-3-22,33.3,31.1,28.6,27.6,24.8,18.4,89,78,55,29.94,29.85,11,4,11,0.00
2013-3-23,38.3,33.6,31.6,32.2,22.8,12.4,98,67,35,30.03,29.85,17,4,17,0.00
2013-3-24,32.7,28.6,24.1,32.2,23.1,5.2,98,82,44,30.15,29.80,0,0,0,0.00
2013-3-25,32.7,27.2,20.7,15.6,10.4,4.0,63,49,39,30.47,30.15,17,4,17,0.00
2013-3-26,37.4,29.2,21.9,11.2,8.2,4.5,62,42,30,30.59,30.47,10,4,10,0.00
2013-3-27,50.5,37.2,25.0,18.4,13.2,5.8,46,37,27,30.59,30.47,14,5,14,0.00
2013-3-28,63.1,51.0,37.6,27.0,21.6,17.5,47,32,22,30.53,30.45,10,4,10,0.00
2013-3-29,66.9,55.0,41.0,32.1,25.4,20.1,58,34,17,30.59,30.47,13,5,13,0.00
2013-3-30,65.8,55.4,49.8,52.4,40.1,29.2,88,58,36,30.50,30.27,15,4,15,0.00
2013-3-31,65.5,56.1,46.9,51.6,28.7,11.0,98,42,18,30.45,30.36,20,6,20,0.00
2013-4-1,49.6,40.7,33.8,22.9,10.0,2.7,53,29,20,30.77,30.45,14,5,14,0.00
2013-4-2,48.6,38.8,29.3,13.2,8.2,5.0,38,28,21,30.83,30.77,10,4,10,0.00
2013-4-3,51.6,42.2,32.5,15.6,9.8,6.1,41,27,19,30.89,30.77,15,5,15,0.00
2013-4-4,62.1,49.4,38.8,17.0,12.6,6.1,33,23,16,30.80,30.62,11,3,11,0.00
2013-4-5,67.8,55.7,39.9,27.8,22.0,9.6,41,27,20,30.77,30.50,14,4,14,0.00
2013-4-6,74.8,62.9,54.5,32.3,27.6,22.9,35,27,16,30.50,30.30,20,8,20,0.00
2013-4-7,71.8,61.2,50.9,47.5,32.4,26.5,66,35,23,30.53,30.33,13,4,13,0.08
2013-4-8,71.4,64.7,57.2,53.0,46.1,41.4,81,53,35,30.42,30.33,14,5,14,0.04
2013-4-9,68.9,66.2,64.6,44.5,42.8,40.7,45,43,38,30.47,30.33,15,7,15,0.00
2013-4-10,46.0,42.0,38.5,43.3,38.2,34.0,94,86,76,30.65,0.00,18,8,18,1.30
2013-4-11,40.6,36.3,33.4,35.3,19.3,12.7,91,52,34,30.53,30.50,22,10,23,0.59
2013-4-12,52.0,40.0,30.9,19.2,17.2,14.0,60,41,27,30.80,30.53,17,8,17,0.59
2013-4-13,64.6,50.3,34.3,31.1,23.1,17.0,54,35,24,30.86,30.53,15,4,15,0.59
2013-4-14,73.9,62.8,54.0,46.8,32.3,22.8,58,33,21,30.53,30.27,22,7,22,0.59
2013-4-15,58.6,49.4,44.6,37.9,24.7,18.0,73,39,22,30.86,30.50,13,5,13,0.59
2013-4-16,45.5,43.7,41.4,28.4,22.3,19.1,51,43,37,31.01,30.86,17,7,17,0.59
2013-4-17,55.2,49.7,45.3,54.7,45.8,27.8,98,88,50,30.98,30.56,15,5,15,0.59
2013-4-18,44.1,39.2,0.0,43.5,31.2,17.2,98,68,40,30.86,0.00,24,11,24,0.28
2013-4-19,52.0,41.7,32.5,32.0,32.0,32.0,50,33,21,31.01,30.86,28,10,28,0.00
2013-4-20,57.2,46.1,32.9,32.0,32.0,32.0,42,31,25,31.01,31.01,14,5,14,0.00
2013-4-21,66.9,56.7,46.8,32.0,32.0,32.0,44,31,23,31.01,31.01,19,6,19,0.00
2013-4-22,66.6,56.6,48.0,39.2,32.4,32.0,58,35,24,31.01,30.98,17,5,17,0.00
2013-4-23,52.7,37.4,34.3,44.6,33.4,32.0,88,75,47,31.01,31.01,20,8,20,0.79
2013-4-24,52.5,41.1,30.6,32.0,32.0,32.0,92,45,26,31.01,31.01,17,5,17,0.00
2013-4-25,67.5,53.1,36.3,32.0,32.0,32.0,52,32,17,31.01,17.72,12,3,12,0.00
2013-4-26,57.2,51.4,47.7,48.2,38.4,32.0,97,62,26,17.72,17.72,21,6,21,0.47
2013-4-27,53.8,49.9,47.1,48.2,44.8,37.4,98,82,57,17.72,17.72,10,3,10,0.20
2013-4-28,72.3,58.1,40.5,53.6,41.2,33.8,97,59,24,17.72,17.72,13,3,13,0.00
2013-4-29,81.7,69.0,54.7,46.4,42.7,35.6,64,41,23,17.72,17.72,15,5,15,0.00
2013-4-30,80.8,73.3,65.8,42.8,36.0,32.0,42,26,17,17.72,17.72,18,6,18,0.00
2013-5-1,81.9,67.5,45.9,44.6,35.9,32.0,48,31,20,17.72,17.72,20,6,20,0.00
2013-5-2,45.9,40.0,32.5,35.6,32.6,32.0,98,70,46,17.72,17.72,21,8,21,0.39
2013-5-3,37.2,35.7,34.7,33.8,32.1,32.0,90,83,75,17.72,17.72,17,7,17,0.83
2013-5-4,46.2,39.9,32.9,41.0,33.6,32.0,98,75,44,17.72,17.72,11,4,13,0.20
2013-5-5,57.6,49.7,42.6,48.2,41.8,35.6,98,76,45,17.72,17.72,15,5,15,0.08
2013-5-6,68.9,57.4,50.5,48.2,41.6,32.0,86,60,27,17.72,17.72,13,4,13,0.00
2013-5-7,75.9,64.3,53.1,53.6,38.6,32.0,84,44,21,17.72,17.72,20,2,20,0.00
2013-5-8,73.0,65.1,57.9,50.0,39.9,33.8,61,40,28,17.72,17.72,18,4,18,0.00
2013-5-9,74.1,64.1,57.9,60.8,50.8,37.4,94,66,28,17.72,17.72,118,3,118,0.47
2013-5-10,65.5,58.4,52.2,55.4,43.6,32.0,94,61,30,17.72,17.72,15,4,15,0.00
2013-5-11,65.1,57.5,47.8,42.8,34.1,32.0,74,34,16,17.72,17.72,22,6,22,0.00
2013-5-12,66.4,54.6,40.3,32.0,32.0,32.0,39,24,17,17.72,17.72,11,2,11,0.00
2013-5-13,76.1,63.3,49.1,42.8,34.0,32.0,49,33,21,17.72,17.72,13,4,13,0.00
2013-5-14,91.4,75.8,61.9,44.6,36.5,32.0,52,28,12,17.72,17.72,25,4,25,0.00
2013-5-15,84.7,74.1,65.7,55.4,43.6,33.8,64,35,21,17.72,0.00,14,4,14,0.00
2013-5-16,78.4,69.1,61.3,59.0,49.4,41.0,81,52,28,0.00,0.00,13,4,13,0.00
2013-5-17,76.8,67.2,59.0,60.8,50.6,41.0,96,60,31,0.00,0.00,8,3,8,0.00
2013-5-18,83.3,74.2,63.5,62.6,52.0,46.4,76,48,30,0.00,0.00,17,6,17,0.00
2013-5-19,84.0,70.3,61.7,64.4,54.4,44.6,90,60,30,0.00,0.00,35,5,35,1.57
2013-5-20,73.4,65.8,61.0,66.2,56.7,46.4,90,73,45,0.00,0.00,17,3,17,0.20
2013-5-21,74.1,65.2,56.5,62.6,41.2,33.8,93,44,26,0.00,0.00,14,4,14,0.00
2013-5-22,67.1,61.2,55.4,42.8,37.9,33.8,57,42,32,0.00,0.00,21,7,21,0.00
2013-5-23,68.4,60.8,53.4,42.8,39.6,35.6,62,46,35,0.00,0.00,15,4,15,0.00
2013-5-24,71.8,62.6,53.1,48.2,37.5,32.0,79,43,22,0.00,0.00,18,6,18,0.00
2013-5-25,81.5,69.7,59.7,51.8,43.2,32.0,50,39,29,0.00,0.00,14,4,14,0.00
2013-5-26,82.8,74.2,66.4,60.8,53.9,48.2,82,52,32,0.00,0.00,17,4,17,0.00
2013-5-27,81.0,71.4,63.0,64.4,54.9,50.0,98,58,36,0.00,0.00,27,6,27,1.57
2013-5-28,76.5,72.7,69.3,68.0,58.7,51.8,82,61,45,0.00,0.00,19,4,19,0.08
2013-5-29,80.1,74.3,64.2,62.6,52.5,46.4,80,48,33,0.00,0.00,26,7,26,0.12
2013-5-30,71.1,64.2,62.1,62.6,58.1,48.2,97,82,43,0.00,0.00,23,6,23,1.81
2013-5-31,79.2,67.5,58.3,66.2,58.7,48.2,98,76,35,0.00,0.00,21,4,21,2.95
2013-6-1,69.6,65.2,60.8,62.6,46.2,35.6,94,53,32,0.00,0.00,23,6,23,0.00
2013-6-2,64.4,58.3,54.3,44.6,38.5,32.0,60,48,33,0.00,0.00,13,5,13,0.00
2013-6-3,72.3,62.2,51.1,44.6,38.3,33.8,54,41,31,0.00,0.00,14,5,14,0.00
2013-6-4,73.8,65.9,61.7,60.8,51.0,42.8,87,59,39,0.00,0.00,18,6,18,0.16
2013-6-5,68.4,63.9,61.3,66.2,58.8,53.6,98,83,65,0.00,0.00,10,4,10,0.71
2013-6-6,73.4,66.3,59.0,62.6,45.9,32.0,98,54,23,0.00,0.00,11,3,11,0.00
2013-6-7,73.8,65.3,56.1,51.8,39.3,32.0,72,40,23,0.00,0.00,11,2,11,0.00
2013-6-8,79.2,69.2,56.3,51.8,42.2,35.6,63,39,26,0.00,0.00,15,4,15,0.00
2013-6-9,80.1,69.9,61.7,62.6,48.5,33.8,96,54,20,0.00,0.00,25,5,25,0.43
2013-6-10,86.4,73.9,61.7,50.0,43.8,37.4,62,36,18,0.00,0.00,11,4,11,0.00
2013-6-11,92.7,80.4,69.8,62.6,50.7,41.0,73,39,17,0.00,0.00,12,4,13,0.00
2013-6-12,92.7,83.3,73.8,62.6,52.6,42.8,64,37,20,0.00,0.00,23,6,23,0.00
2013-6-13,83.8,73.4,62.6,50.0,43.7,39.2,48,35,22,0.00,0.00,22,4,22,0.00
2013-6-14,87.3,77.0,67.3,59.0,53.6,46.4,74,46,31,0.00,0.00,15,5,15,0.00
2013-6-15,87.1,74.4,67.1,68.0,60.2,50.0,97,64,34,0.00,0.00,51,5,51,1.02
2013-6-16,82.8,73.6,66.7,68.0,63.0,55.4,96,72,40,0.00,0.00,8,2,8,0.04
2013-6-17,75.7,70.0,66.0,68.0,62.0,51.8,93,77,46,0.00,0.00,15,2,15,2.32
2013-6-18,84.6,73.1,64.4,66.2,55.9,39.2,97,62,22,0.00,0.00,9,2,9,0.00
2013-6-19,86.5,75.8,66.2,66.2,54.0,42.8,95,51,24,0.00,0.00,11,4,11,0.00
2013-6-20,87.4,79.0,68.9,60.8,56.7,51.8,74,48,31,0.00,0.00,22,6,22,0.08
2013-6-21,89.2,79.5,74.3,64.4,59.8,53.6,70,52,31,0.00,0.00,15,4,15,0.00
2013-6-22,90.7,81.6,73.4,62.6,56.4,46.4,65,44,23,0.00,0.00,14,4,14,0.00
2013-6-23,89.4,81.0,72.5,66.2,57.6,50.0,76,47,28,0.00,0.00,14,4,14,0.00
2013-6-24,90.3,81.0,72.0,62.6,55.1,44.6,72,43,22,0.00,0.00,15,4,16,0.00
2013-6-25,88.2,79.9,75.2,66.2,56.2,51.8,72,45,29,0.00,0.00,17,4,17,0.04
2013-6-26,97.0,84.8,73.9,66.2,50.9,35.6,73,37,13,0.00,0.00,15,4,15,0.00
2013-6-27,88.7,78.3,69.4,68.0,55.0,44.6,93,46,30,0.00,0.00,32,2,32,0.63
2013-6-28,85.3,76.9,67.6,68.0,52.8,37.4,97,51,20,0.00,0.00,16,5,16,0.04
2013-6-29,81.3,74.3,66.0,46.4,41.6,35.6,48,32,20,0.00,0.00,22,8,22,0.00
2013-7-1,80.6,75.6,66.6,41.0,36.2,33.8,39,25,19,0.00,0.00,13,3,13,0.00
2013-7-2,82.0,70.9,59.9,50.0,39.6,33.8,65,35,19,0.00,0.00,10,2,11,0.04
2013-7-3,85.5,69.3,58.8,55.4,44.8,33.8,75,46,16,0.00,0.00,16,3,16,0.00
2013-7-4,85.3,73.5,61.0,46.4,41.7,35.6,59,35,18,0.00,0.00,11,3,11,0.00
2013-7-5,88.2,76.7,64.8,50.0,44.8,39.2,56,35,18,0.00,0.00,12,4,12,0.00
2013-7-6,87.3,76.5,68.4,53.6,48.4,42.8,53,38,22,0.00,0.00,14,4,14,0.00
2013-7-7,90.1,79.3,70.2,60.8,53.0,46.4,70,42,22,0.00,0.00,13,3,13,0.00
2013-7-8,93.6,82.1,72.0,57.2,52.1,44.6,55,37,19,0.00,0.00,11,2,12,0.00
2013-7-9,97.3,85.4,74.7,62.6,55.6,48.2,62,38,19,0.00,0.00,12,3,12,0.00
2013-7-10,91.0,83.8,73.8,59.0,51.0,39.2,42,33,17,0.00,0.00,10,3,10,0.00
2013-7-11,85.8,77.1,67.3,50.0,43.6,37.4,50,32,19,0.00,0.00,11,4,11,0.00
2013-7-12,87.6,77.1,66.7,51.8,45.6,39.2,58,35,20,0.00,0.00,16,6,16,0.00
2013-7-13,87.8,77.1,67.6,50.0,46.1,41.0,46,34,22,0.00,0.00,13,5,13,0.00
2013-7-14,86.7,76.4,65.1,55.4,45.8,37.4,67,37,18,0.00,0.00,15,5,15,0.00
2013-7-15,88.9,78.9,69.8,60.8,53.6,42.8,74,44,21,0.00,0.00,13,5,13,0.00
2013-7-16,92.7,81.8,70.0,66.2,54.5,42.8,84,44,18,0.00,0.00,11,3,11,0.00
2013-7-17,91.0,81.7,72.1,66.2,57.4,50.0,75,46,25,0.00,0.00,13,2,13,0.00
2013-7-18,95.4,84.6,72.1,66.2,52.0,41.0,75,37,16,0.00,40.00,10,2,13,0.00
2013-7-19,96.6,84.8,70.7,59.0,48.8,41.0,64,32,16,0.00,0.00,17,3,17,0.00
2013-7-20,90.0,79.0,73.4,69.8,57.7,46.4,77,50,22,0.00,0.00,13,2,13,0.00
2013-7-21,87.8,77.4,69.8,71.6,58.3,50.0,92,55,27,0.00,0.00,13,2,13,0.00
2013-7-22,92.8,81.1,70.2,71.6,56.8,42.8,93,48,19,0.00,0.00,14,2,14,0.00
2013-7-23,87.1,78.8,70.3,68.0,56.4,48.2,83,48,29,0.00,0.00,12,3,12,0.00
2013-7-24,86.2,75.4,66.2,51.8,44.6,37.4,60,36,18,0.00,0.00,10,3,10,0.00
2013-7-25,85.8,75.0,67.1,62.6,49.2,39.2,68,42,21,0.00,0.00,13,3,13,0.00
2013-7-26,87.1,75.2,68.7,64.4,51.9,32.0,85,48,20,0.00,0.00,12,3,12,0.00
2013-7-27,77.2,67.9,58.5,46.4,37.4,32.0,60,34,20,0.00,0.00,14,3,14,0.00
2013-7-28,74.7,67.4,59.2,44.6,36.7,32.0,47,33,21,0.00,0.00,8,1,8,0.00
2013-7-29,71.2,66.1,60.8,71.6,57.3,41.0,98,75,39,0.00,0.00,17,4,17,0.51
2013-7-30,83.7,75.3,70.5,77.0,67.2,57.2,98,78,44,0.00,0.00,17,2,17,0.75
2013-7-31,83.3,75.5,69.8,68.0,57.6,46.4,94,59,30,0.00,0.00,10,2,10,0.00
2013-8-1,88.2,76.9,65.1,68.0,53.9,39.2,94,51,19,0.00,0.00,9,2,9,0.00
2013-8-2,87.1,76.2,68.2,69.8,62.1,53.6,96,64,34,0.00,0.00,14,3,14,0.43
2013-8-3,83.8,76.7,71.6,69.8,60.6,51.8,84,59,35,0.00,0.00,11,4,11,0.00
2013-8-4,74.7,70.0,65.5,69.8,62.5,48.2,98,80,46,0.00,0.00,15,4,15,0.75
2013-8-5,84.7,76.2,69.8,71.6,65.2,55.4,98,72,38,0.00,0.00,9,3,9,0.00
2013-8-6,87.1,78.3,69.8,73.4,65.5,57.2,98,68,37,0.00,0.00,25,3,25,2.24
2013-8-7,84.2,77.0,70.5,73.4,64.4,55.4,95,67,43,0.00,0.00,24,3,24,0.28
2013-8-8,73.9,71.0,68.0,62.6,57.6,51.8,72,63,49,0.00,0.00,19,3,19,0.00
2013-8-9,72.9,70.2,67.3,66.2,60.5,55.4,83,71,55,0.00,0.00,7,2,7,0.04
2013-8-10,82.6,73.6,65.3,64.4,53.2,41.0,96,53,25,0.00,0.00,10,3,10,0.00
2013-8-11,85.5,76.0,65.7,57.2,50.3,44.6,54,41,29,0.00,0.00,10,3,10,0.00
2013-8-12,83.7,74.8,68.2,71.6,60.5,50.0,98,64,34,0.00,0.00,13,3,13,0.43
2013-8-13,79.0,72.0,66.2,66.2,51.8,39.2,92,53,25,0.00,0.00,10,2,10,0.00
2013-8-14,77.9,69.0,62.2,55.4,45.0,37.4,72,44,24,0.00,0.00,13,4,13,0.00
2013-8-15,75.4,67.4,61.2,48.2,43.7,39.2,60,43,28,0.00,0.00,13,4,13,0.00
2013-8-16,75.6,67.9,60.4,48.2,43.2,39.2,62,42,28,0.00,0.00,11,4,11,0.00
2013-8-17,77.4,68.8,57.4,51.8,41.6,35.6,71,38,23,0.00,0.00,11,3,11,0.00
2013-8-18,81.5,72.0,61.9,50.0,45.7,41.0,58,40,24,0.00,0.00,11,3,11,0.00
2013-8-19,84.2,74.5,64.0,60.8,51.5,42.8,83,48,26,0.00,0.00,10,2,10,0.00
2013-8-20,87.3,76.1,64.8,60.8,53.0,44.6,81,48,24,0.00,0.00,8,2,10,0.00
2013-8-21,88.3,77.3,66.7,64.4,57.3,48.2,87,54,27,0.00,0.00,11,2,11,0.00
2013-8-22,88.9,79.1,68.7,68.0,58.1,50.0,88,53,28,0.00,0.00,9,2,9,0.00
2013-8-23,89.8,80.3,71.2,68.0,56.3,46.4,81,48,24,0.00,0.00,13,3,13,0.00
2013-8-24,90.5,80.8,72.0,66.2,56.6,48.2,78,46,26,0.00,0.00,13,4,13,0.00
2013-8-25,91.2,80.5,69.8,64.4,57.0,46.4,81,48,22,0.00,0.00,11,3,11,0.00
2013-8-26,92.8,81.1,70.3,69.8,58.3,48.2,87,50,23,0.00,0.00,13,2,13,0.00
2013-8-27,91.9,79.7,68.4,68.0,54.0,42.8,88,47,19,0.00,0.00,11,2,11,0.04
2013-8-28,91.8,79.8,66.4,68.0,56.0,46.4,88,48,23,0.00,0.00,15,2,15,0.00
2013-8-29,94.3,83.0,73.0,68.0,58.1,46.4,79,47,21,0.00,0.00,10,2,10,0.00
2013-8-30,98.6,84.8,72.9,66.2,56.3,42.8,77,44,16,0.00,0.00,13,2,13,0.00
2013-8-31,90.0,81.5,73.4,66.2,58.7,42.8,73,48,21,0.00,0.00,13,2,13,0.00
2013-9-1,87.8,77.2,68.9,71.6,58.8,46.4,88,56,30,0.00,0.00,23,4,23,0.35
2013-9-2,82.4,72.6,63.0,55.4,46.6,37.4,73,42,21,0.00,0.00,10,3,10,0.00
2013-9-3,84.6,72.9,60.4,51.8,42.7,35.6,67,37,19,0.00,0.00,9,3,9,0.00
2013-9-4,85.8,73.8,60.8,57.2,46.0,37.4,77,41,19,0.00,0.00,9,2,9,0.00
2013-9-5,87.3,76.4,64.6,50.0,45.2,39.2,56,35,19,0.00,0.00,10,2,10,0.00
2013-9-6,88.0,77.2,67.1,53.6,47.4,41.0,59,37,20,0.00,0.00,11,3,11,0.00
2013-9-7,95.5,80.7,67.1,57.2,51.1,42.8,70,39,18,0.00,0.00,9,2,9,0.00
2013-9-8,99.3,84.7,71.8,59.0,51.3,42.8,59,35,16,0.00,0.00,11,2,11,0.00
2013-9-9,95.5,82.2,71.2,57.2,49.0,37.4,61,35,14,0.00,0.00,12,2,12,0.00
2013-9-10,93.6,80.9,69.4,60.8,49.8,41.0,68,37,17,0.00,0.00,15,2,15,0.00
2013-9-11,93.9,79.7,67.1,57.2,48.6,39.2,67,38,16,0.00,0.00,14,2,14,0.00
2013-9-12,85.6,75.7,68.7,68.0,52.8,32.0,81,49,23,0.00,0.00,12,3,13,0.00
2013-9-13,75.6,67.4,56.8,41.0,33.4,32.0,48,29,21,0.00,0.00,11,3,11,0.00
2013-9-14,77.5,66.4,54.7,39.2,34.6,32.0,49,32,20,0.00,0.00,13,4,13,0.00
2013-9-15,85.5,71.1,62.8,64.4,46.9,39.2,84,45,24,0.00,0.00,13,4,14,0.00
2013-9-16,64.8,60.6,59.0,59.0,55.6,50.0,98,84,68,0.00,0.00,13,4,13,0.04
2013-9-17,70.3,64.9,60.8,69.8,63.6,59.0,98,94,76,0.00,0.00,13,4,13,0.47
2013-9-18,88.5,75.7,66.0,68.0,60.8,50.0,98,66,28,0.00,0.00,16,4,16,0.04
2013-9-19,92.3,77.9,67.1,68.0,56.3,42.8,98,54,18,0.00,0.00,22,4,22,0.43
2013-9-20,68.5,63.8,58.5,68.0,42.3,32.0,98,49,25,0.00,0.00,13,5,13,0.00
2013-9-21,74.1,62.2,50.2,46.4,36.3,32.0,75,41,21,0.00,0.00,8,2,8,0.00
2013-9-22,75.7,64.6,53.1,42.8,35.8,32.0,62,37,20,0.00,0.00,13,4,13,0.00
2013-9-23,76.3,65.5,54.7,44.6,39.2,32.0,69,40,21,0.00,0.00,17,6,17,0.00
2013-9-24,69.6,64.7,60.1,53.6,46.5,41.0,72,52,38,0.00,0.00,15,5,15,0.00
2013-9-25,75.0,65.6,57.9,68.0,55.0,48.2,98,72,42,0.00,0.00,10,3,10,0.00
2013-9-26,84.4,72.0,61.0,57.2,47.8,37.4,82,47,19,0.00,0.00,17,6,17,0.00
2013-9-27,86.5,74.2,64.9,55.4,47.9,39.2,70,42,20,0.00,0.00,13,6,16,0.00
2013-9-28,71.2,64.0,53.4,66.2,51.3,44.6,96,66,41,0.00,0.00,20,4,20,0.35
2013-9-29,72.9,60.8,47.7,62.6,43.8,32.0,98,61,23,0.00,0.00,8,2,12,0.00
2013-9-30,77.4,64.2,51.6,55.4,46.7,41.0,86,56,30,0.00,0.00,14,2,14,0.00
2013-10-1,81.9,69.7,60.1,73.4,56.6,48.2,98,67,33,0.00,0.00,11,2,11,0.00
2013-10-2,84.6,72.1,64.4,68.0,57.2,44.6,95,64,29,0.00,0.00,14,3,14,0.00
2013-10-3,86.2,73.8,67.6,68.0,59.1,48.2,96,65,29,0.00,0.00,17,4,17,0.00
2013-10-4,87.3,75.9,66.2,66.2,55.6,44.6,90,54,24,0.00,0.00,17,5,17,0.20
2013-10-5,66.4,54.3,45.5,62.6,35.0,32.0,88,41,24,0.00,0.00,22,7,22,0.24
2013-10-6,61.0,51.0,41.5,35.6,32.1,32.0,55,40,25,0.00,0.00,25,8,25,0.00
2013-10-7,71.8,57.4,44.6,35.6,32.3,32.0,61,37,19,0.00,0.00,13,3,13,0.00
2013-10-8,75.4,61.4,48.9,41.0,34.7,32.0,66,39,18,0.00,0.00,15,4,15,0.00
2013-10-9,75.4,62.8,51.1,42.8,35.8,32.0,70,40,18,0.00,0.00,13,4,13,0.00
2013-10-10,77.4,64.0,50.7,48.2,38.6,32.0,83,43,20,0.00,0.00,13,4,14,0.00
2013-10-11,74.5,66.1,56.7,59.0,49.0,39.2,79,56,38,0.00,0.00,20,5,26,0.24
2013-10-12,69.6,60.1,49.8,57.2,36.3,32.0,89,41,20,0.00,0.00,15,3,15,0.04
2013-10-13,71.1,59.6,49.5,32.0,32.0,32.0,43,25,17,0.00,0.00,15,4,15,0.00
2013-10-14,66.2,58.6,52.3,57.2,38.5,32.0,89,43,23,0.00,0.00,22,6,22,0.16
2013-10-15,60.3,55.0,44.8,57.2,38.8,32.0,95,53,26,0.00,0.00,20,7,20,0.08
2013-10-16,58.1,50.0,41.4,35.6,32.2,32.0,62,44,28,0.00,0.00,14,4,14,0.00
2013-10-17,65.8,53.5,40.1,42.8,33.5,32.0,84,46,23,0.00,0.00,20,4,20,0.00
2013-10-18,48.9,41.7,36.7,35.6,32.6,32.0,93,66,30,0.00,0.00,12,4,12,0.12
2013-10-19,61.5,45.4,33.8,44.6,33.9,32.0,98,65,24,0.00,0.00,20,4,20,0.04
2013-10-20,70.2,55.5,43.3,33.8,32.0,32.0,62,40,19,0.00,0.00,13,2,13,0.00
2013-10-21,57.6,48.1,37.8,32.0,32.0,32.0,57,39,26,0.00,0.00,15,4,15,0.00
2013-10-22,60.3,49.5,38.3,33.8,32.0,32.0,58,42,27,0.00,0.00,22,6,22,0.00
2013-10-23,50.5,42.6,32.7,32.0,32.0,32.0,78,50,30,0.00,0.00,9,2,9,0.00
2013-10-24,50.2,42.1,32.5,32.0,32.0,32.0,73,43,21,0.00,0.00,15,4,15,0.00
2013-10-25,56.7,43.3,29.8,32.0,32.0,32.0,61,37,20,0.00,0.00,11,2,11,0.00
2013-10-26,61.3,50.0,41.5,33.8,32.0,32.0,58,36,19,0.00,0.00,17,4,17,0.00
2013-10-27,63.1,47.6,32.9,32.0,32.0,32.0,68,36,18,0.00,0.00,10,1,10,0.00
2013-10-28,63.5,51.0,39.9,46.4,37.3,32.0,78,51,37,0.00,0.00,11,2,11,0.00
2013-10-29,64.8,57.4,52.3,64.4,55.8,39.2,98,93,60,0.00,0.00,15,4,15,1.14
2013-10-30,67.5,64.9,61.3,68.0,63.7,51.8,98,95,59,0.00,0.00,15,4,15,1.30
2013-10-31,62.2,52.0,43.7,62.6,48.0,33.8,98,86,50,0.00,0.00,15,4,15,0.67
2013-11-1,59.4,50.5,40.5,44.6,32.3,32.0,93,43,25,0.00,0.00,24,6,24,0.00
2013-11-2,55.4,46.5,39.2,32.0,32.0,32.0,61,42,23,0.00,0.00,15,6,15,0.00
2013-11-3,59.4,48.6,36.7,32.0,32.0,32.0,60,38,24,0.00,0.00,20,6,20,0.00
2013-11-4,59.2,55.4,50.4,42.8,34.1,32.0,60,42,36,0.00,0.00,17,4,17,0.00
2013-11-5,60.1,56.5,52.5,60.8,55.0,41.0,98,94,60,0.00,0.00,22,5,22,0.87
2013-11-6,54.5,39.9,34.5,53.6,33.4,32.0,92,63,39,0.00,0.00,20,7,20,0.28
2013-11-7,55.6,42.3,30.2,32.0,32.0,32.0,88,48,20,0.00,0.00,17,4,17,0.00
2013-11-8,63.7,51.4,38.8,32.0,32.0,32.0,41,28,18,0.00,0.00,22,5,22,0.00
2013-11-9,64.8,53.7,41.5,32.0,32.0,32.0,53,30,18,0.00,0.00,13,3,13,0.00
2013-11-10,57.7,49.6,39.7,32.0,32.0,32.0,42,30,19,0.00,0.00,12,3,12,0.00
2013-11-11,61.7,47.3,27.3,41.0,33.4,32.0,77,45,31,0.00,0.00,17,5,17,0.00
2013-11-12,34.2,25.7,17.4,32.0,32.0,32.0,54,37,22,0.00,0.00,15,4,15,0.00
2013-11-13,47.8,33.8,19.2,32.0,32.0,32.0,53,33,19,0.00,0.00,14,4,14,0.00
2013-11-14,55.6,42.7,32.0,32.0,32.0,32.0,46,31,20,0.00,0.00,13,4,13,0.00
2013-11-15,57.9,49.7,43.2,39.2,32.7,32.0,67,41,30,0.00,0.00,17,5,17,0.00
2013-11-16,67.5,61.3,50.2,55.4,47.1,39.2,82,60,43,0.00,0.00,25,8,25,0.00
2013-11-17,67.1,60.2,46.8,55.4,38.2,32.0,70,34,15,0.00,0.00,37,10,37,0.16
2013-11-18,56.7,46.0,34.7,32.0,32.0,32.0,73,35,17,0.00,0.00,13,3,13,0.00
2013-11-19,60.1,49.2,38.1,32.0,32.0,32.0,39,26,17,0.00,0.00,20,7,20,0.00
2013-11-20,50.2,45.6,39.4,32.0,32.0,32.0,70,44,19,0.00,0.00,15,6,20,0.16
2013-11-21,52.0,42.8,28.9,50.0,36.1,32.0,97,75,38,0.00,0.00,17,6,17,0.31
2013-11-22,30.9,27.1,24.1,32.0,32.0,32.0,80,62,51,0.00,0.00,17,7,17,0.00
2013-11-23,28.2,23.1,13.8,32.0,32.0,32.0,64,39,23,0.00,0.00,15,6,15,0.00
2013-11-24,27.0,19.7,10.8,32.0,32.0,32.0,48,39,32,0.00,0.00,10,4,10,0.00
2013-11-25,36.0,31.2,27.0,32.0,32.0,32.0,50,36,30,0.00,0.00,11,3,11,0.00
2013-11-26,37.0,30.1,22.1,32.0,32.0,32.0,62,43,27,0.00,0.00,20,7,20,0.00
2013-11-27,32.7,24.3,15.3,32.0,32.0,32.0,48,34,25,0.00,0.00,10,4,10,0.00
2013-11-28,42.6,32.6,27.0,32.0,32.0,32.0,43,34,28,0.00,0.00,11,4,11,0.00
2013-11-29,50.4,36.4,24.4,32.0,32.0,32.0,50,37,26,0.00,0.00,13,5,13,0.00
2013-11-30,55.2,42.7,33.4,32.0,32.0,32.0,59,42,29,0.00,0.00,9,3,9,0.00
2013-12-1,56.7,45.8,36.0,35.6,32.1,32.0,79,52,29,0.00,0.00,8,2,8,0.00
2013-12-2,50.2,41.7,32.9,48.2,37.2,32.0,98,84,53,0.00,0.00,10,2,10,0.00
2013-12-3,57.2,47.1,38.8,55.4,42.3,37.4,98,84,48,0.00,0.00,10,2,10,0.00
2013-12-4,45.5,33.4,19.4,50.0,39.0,32.0,98,79,43,0.00,0.00,20,7,20,0.00
2013-12-5,19.2,14.3,12.5,32.0,32.0,32.0,60,40,35,0.00,0.00,19,8,19,0.00
2013-12-6,13.6,10.7,6.6,32.0,32.0,32.0,41,33,28,0.00,0.00,12,6,16,0.00
2013-12-7,20.7,13.5,4.3,32.0,32.0,32.0,38,32,30,0.00,0.00,11,5,13,0.00
2013-12-8,23.4,20.6,17.8,32.0,32.0,32.0,91,61,33,0.00,0.00,13,4,13,0.00
2013-12-9,20.8,13.2,9.9,32.0,32.0,32.0,68,67,56,0.00,0.00,14,5,14,0.00
2013-12-10,37.6,22.2,7.9,32.0,32.0,32.0,68,47,29,0.00,0.00,12,4,12,0.00
2013-12-11,27.1,21.4,11.8,32.0,32.0,32.0,58,40,24,0.00,0.00,17,5,17,0.00
2013-12-12,45.1,27.7,10.0,32.0,32.0,32.0,52,35,20,0.00,0.00,17,4,17,0.00
2013-12-13,35.4,32.2,25.7,35.6,33.1,32.0,98,81,52,0.00,0.00,13,4,13,0.39
2013-12-14,34.3,26.9,21.0,33.8,32.3,32.0,98,72,52,0.00,0.00,15,1,15,0.04
2013-12-15,47.8,33.2,17.4,32.0,32.0,32.0,78,53,33,0.00,0.00,13,3,13,0.00
2013-12-16,58.5,42.9,30.6,32.0,32.0,32.0,51,36,19,0.00,0.00,12,3,13,0.00
2013-12-17,46.2,36.7,29.1,32.0,32.0,32.0,64,43,25,0.00,0.00,18,4,18,0.00
2013-12-18,61.9,45.2,28.6,32.0,32.0,32.0,54,36,21,0.00,0.00,16,5,16,0.00
2013-12-19,56.1,53.3,49.5,46.4,37.6,32.0,74,54,33,0.00,0.00,15,4,15,0.00
2013-12-20,54.9,27.7,21.4,48.2,32.9,32.0,98,80,56,0.00,0.00,15,6,15,0.00
2013-12-21,28.6,24.9,21.6,32.0,32.0,32.0,90,80,70,0.00,0.00,11,4,11,0.04
2013-12-22,26.6,21.7,14.0,32.0,32.0,32.0,91,67,54,0.00,0.00,12,5,12,0.00
2013-12-23,14.2,10.1,5.7,32.0,32.0,32.0,62,61,61,0.00,0.00,11,4,11,0.00
2013-12-24,27.9,16.9,2.8,32.0,32.0,32.0,85,63,43,0.00,0.00,15,4,15,0.00
2013-12-25,38.7,32.0,27.3,32.0,32.0,32.0,89,61,40,0.00,0.00,14,5,14,0.00
2013-12-26,47.5,33.8,21.7,32.0,32.0,32.0,85,53,29,0.00,0.00,12,2,12,0.24
2013-12-27,54.0,38.4,26.1,32.0,32.0,32.0,79,53,27,0.00,0.00,9,2,9,0.00
2013-12-28,54.9,42.1,31.8,32.0,32.0,32.0,60,41,23,0.00,0.00,13,4,13,0.00
2013-12-29,40.3,19.0,9.5,32.0,32.0,32.0,58,40,26,0.00,0.00,20,8,20,0.00
2013-12-30,28.8,18.3,8.1,32.0,32.0,32.0,42,30,25,0.00,0.00,14,4,14,0.00
2013-12-31,50.7,34.1,18.7,32.0,32.0,32.0,63,38,24,0.00,0.00,16,4,16,0.00
2014-1-1,39.2,24.3,10.0,32.0,32.0,32.0,64,49,31,0.00,0.00,18,6,18,0.00
2014-1-2,18.1,8.8,1.8,32.0,32.0,32.0,62,48,33,0.00,0.00,15,5,16,0.00